Left ArrowRight Arrow

46.40834, -105.84056

Hourly Observations for June 22, 2024

Temp ( °F °C ) Dew Point ( °F °C ) Humidity (%) Winds ( mph kmh ) Pressure ( in mb ) Visibility ( mi km ) Precip ( " mm )
12:53 am 00:53 Mostly Cloudy 65 18.3 59 15 81 81 ENE 8 13 29.89 1012 10 16 0.00 0.00
1:13 am 01:13 Partly Cloudy with Nearby Thunderstorms 64 17.8 59 15 84 84 N 8 13 29.88 1012 10 16 0.00 0.00
1:36 am 01:36 Windy with Storms Likely 64 17.8 60 15.6 87 87 WNW 21 33 29.92 1013 10 16 0.01 0.13
1:53 am 01:53 Cloudy with Strong Thunderstorms 55 12.8 54 12.2 96 96 WNW 16 26 29.97 1015 1 1 0.00 0.00
1:59 am 01:59 Cloudy with Strong Thunderstorms 58 14.4 55 12.8 90 90 NW 22 35 29.95 1014 1 2 0.11 2.79
2:08 am 02:08 Cloudy with Strong Thunderstorms 58 14.4 56 13.3 93 93 NW 22 35 29.96 1015 3 5 0.16 4.06
2:26 am 02:26 Cloudy with Nearby Thunderstorms 58 14.4 57 13.9 97 97 NNW 16 26 29.96 1015 5 8 0.21 5.33
2:53 am 02:53 Cloudy with Light Rain 58 14.4 58 14.4 100 100 NE 10 17 29.93 1014 10 16 0.25 6.35
3:53 am 03:53 Clear 59 15 59 15 100 100 SE 5 7 29.89 1012 10 16 0.01 0.13
4:53 am 04:53 Clear 57 13.9 57 13.9 100 100 SW 12 19 29.91 1013 10 16 0.00 0.00
5:53 am 05:53 Sunny 56 13.3 55 12.8 97 97 NW 10 17 29.93 1014 10 16 0.00 0.00
6:53 am 06:53 Sunny 58 14.4 57 13.9 97 97 NW 7 11 29.94 1014 10 16 0.00 0.00
7:53 am 07:53 Sunny 63 17.2 55 12.8 75 75 WNW 10 17 29.95 1014 10 16 0.00 0.00
8:53 am 08:53 Sunny 66 18.9 54 12.2 65 65 WNW 10 17 29.95 1014 10 16 0.00 0.00
9:53 am 09:53 Sunny 68 20 55 12.8 63 63 W 3 6 29.94 1014 10 16 0.00 0.00
10:53 am 10:53 Sunny 70 21.1 55 12.8 59 59 VRB 3 6 29.94 1014 10 16 0.00 0.00
11:53 am 11:53 Sunny 73 22.8 56 13.3 55 55 S 3 6 29.93 1014 10 16 0.00 0.00
12:53 pm 12:53 Sunny 76 24.4 56 13.3 50 50 SSE 8 13 29.92 1013 10 16 0.00 0.00
1:53 pm 13:53 Sunny 78 25.6 56 13.3 47 47 SSE 7 11 29.92 1013 10 16 0.00 0.00
2:53 pm 14:53 Sunny 80 26.7 54 12.2 41 41 undefined N/A 29.91 1013 10 16 0.00 0.00
3:53 pm 15:53 Sunny 80 26.7 53 11.7 39 39 WSW 9 15 29.89 1012 10 16 0.00 0.00
4:53 pm 16:53 Sunny 80 26.7 54 12.2 41 41 VRB 5 7 29.89 1012 10 16 0.00 0.00
5:53 pm 17:53 Sunny 82 27.8 54 12.2 38 38 Calm 29.88 1012 10 16 0.00 0.00
6:53 pm 18:53 Sunny 81 27.2 55 12.8 41 41 SSE 3 6 29.86 1011 10 16 0.00 0.00
7:53 pm 19:53 Sunny 79 26.1 58 14.4 49 49 E 3 6 29.86 1011 10 16 0.00 0.00
8:53 pm 20:53 Sunny 74 23.3 59 15 60 60 E 7 11 29.87 1011 10 16 0.00 0.00
9:53 pm 21:53 Clear 69 20.6 60 15.6 73 73 ENE 6 9 29.89 1012 10 16 0.00 0.00
10:53 pm 22:53 Clear 69 20.6 60 15.6 73 73 E 3 6 29.90 1012 10 16 0.00 0.00
11:53 pm 23:53 Clear 67 19.4 60 15.6 79 79 Calm 29.89 1012 10 16 0.00 0.00

Powered by Vaisala Xweather